Location: Newark
(52.4787°S, 179.0532°W)
Time: 21:48:15
(UTC+00:00)

Transit 2A Rocket - Pass Details

Date: 29 November 2019
Orbit: 594 x 909 km, 66.7° (Epoch: 11 December)

Event Time Altitude Azimuth Distance (km) Brightness Sun altitude
Rises 05:05:04 0° 226° (SW) 3,565 9.3 22.7°
Reaches altitude 10° 05:08:19 10° 242° (WSW) 2,597 9.2 22.2°
Maximum altitude 05:12:27 20° 285° (WNW) 1,954 8.7 21.6°
Drops below altitude 10° 05:16:27 10° 329° (NNW) 2,480 8.0 21.0°
Sets 05:19:28 0° 346° (NNW) 3,353 8.4 20.6°
